This is the latest recevied weather packets stored in our database for station/object K1RFS. If no packets are shown the sender has not sent any weather packets the latest 10 day(s).
| Time | Temp. | Humidity | Pressure | Rain* | Wind** | Luminosity | Snow |
|---|---|---|---|---|---|---|---|
| 1777759341 | 25° C | 13% | 1002.8 hPa | 0 mm | - | 436 W/m² | - |
| 1777759038 | 25° C | 13% | 1002.9 hPa | 0 mm | - | 532 W/m² | - |
| 1777758735 | 25° C | 13% | 1003.2 hPa | 0 mm | - | 507 W/m² | - |
| 1777758432 | 25° C | 12% | 1003.2 hPa | 0 mm | - | 419 W/m² | - |
| 1777758129 | 25° C | 12% | 1003.2 hPa | 0 mm | - | 391 W/m² | - |
| 1777757827 | 24.44° C | 12% | 1003.2 hPa | 0 mm | - | 464 W/m² | - |
| 1777757524 | 25° C | 12% | 1003.4 hPa | 0 mm | - | 535 W/m² | - |
| 1777757222 | 24.44° C | 11% | 1003.4 hPa | 0 mm | - | 532 W/m² | - |
| 1777756920 | 24.44° C | 12% | 1003.8 hPa | 0 mm | - | 572 W/m² | - |
| 1777756616 | 24.44° C | 13% | 1003.8 hPa | 0 mm | - | 499 W/m² | - |
| 1777756313 | 24.44° C | 12% | 1003.8 hPa | 0 mm | - | 545 W/m² | - |
| 1777756010 | 24.44° C | 11% | 1003.8 hPa | 0 mm | - | 607 W/m² | - |
| 1777755707 | 25° C | 12% | 1004 hPa | 0 mm | - | 625 W/m² | - |
| 1777755404 | 25° C | 12% | 1004.1 hPa | 0 mm | - | 621 W/m² | - |
| 1777755100 | 24.44° C | 13% | 1003.9 hPa | 0 mm | - | 624 W/m² | - |
| 1777754797 | 24.44° C | 14% | 1004.1 hPa | 0 mm | - | 633 W/m² | - |
| 1777754495 | 24.44° C | 14% | 1004 hPa | 0 mm | - | 625 W/m² | - |
| 1777754192 | 24.44° C | 14% | 1004.4 hPa | 0 mm | - | 637 W/m² | - |
| 1777753890 | 22.78° C | 14% | 1004.1 hPa | 0 mm | - | 606 W/m² | - |
| 1777753584 | 22.78° C | 14% | 1004.4 hPa | 0 mm | - | 474 W/m² | - |
| 1777753283 | 23.89° C | 14% | 1004.2 hPa | 0 mm | - | 529 W/m² | - |
| 1777752979 | 23.89° C | 13% | 1004.6 hPa | 0 mm | - | 598 W/m² | - |
| 1777752676 | 23.33° C | 12% | 1004.7 hPa | 0 mm | - | 637 W/m² | - |
| 1777752372 | 23.89° C | 15% | 1004.7 hPa | 0 mm | - | 643 W/m² | - |
| 1777752069 | 23.33° C | 15% | 1004.6 hPa | 0 mm | - | 649 W/m² | - |
* Rain latest hour (hover to see other rain measurements)
** Current wind speed in m/s (hover to see current wind gust speed)